This is the latest recevied weather packets stored in our database for station/object OK1LPD-6. If no packets are shown the sender has not sent any weather packets the latest 10 day(s).
| Time | Temp. | Humidity | Pressure | Rain* | Wind** | Luminosity | Snow |
|---|---|---|---|---|---|---|---|
| 1777610698 | 6.11° C | 72% | 1029.8 hPa | 0 mm | - | - | - |
| 1777610080 | 5° C | 75% | 1029.6 hPa | 0 mm | - | - | - |
| 1777609480 | 4.44° C | 80% | 1029.6 hPa | 0 mm | - | - | - |
| 1777608901 | 3.89° C | 82% | 1029.7 hPa | 0 mm | - | - | - |
| 1777608281 | 2.22° C | 82% | 1029.5 hPa | 0 mm | - | - | - |
| 1777607681 | 2.22° C | 82% | 1029.7 hPa | 0 mm | - | - | - |
| 1777607098 | 2.22° C | 82% | 1029.6 hPa | 0 mm | - | - | - |
| 1777606480 | 2.22° C | 82% | 1029.6 hPa | 0 mm | - | - | - |
| 1777605881 | 2.22° C | 82% | 1029.5 hPa | 0 mm | - | - | - |
| 1777605302 | 2.22° C | 82% | 1029.5 hPa | 0 mm | - | - | - |
| 1777604681 | 2.22° C | 82% | 1029.6 hPa | 0 mm | - | - | - |
| 1777604081 | 2.22° C | 81% | 1029.6 hPa | 0 mm | - | - | - |
| 1777603499 | 2.78° C | 81% | 1029.4 hPa | 0 mm | - | - | - |
| 1777602882 | 2.78° C | 81% | 1029.4 hPa | 0 mm | - | - | - |
| 1777602281 | 2.78° C | 81% | 1029.4 hPa | 0 mm | - | - | - |
| 1777601702 | 2.78° C | 81% | 1029.2 hPa | 0 mm | - | - | - |
| 1777601081 | 2.78° C | 81% | 1029.3 hPa | 0 mm | - | - | - |
| 1777600482 | 2.78° C | 80% | 1029.3 hPa | 0 mm | - | - | - |
| 1777599899 | 3.33° C | 80% | 1029.3 hPa | 0 mm | - | - | - |
| 1777599282 | 3.33° C | 80% | 1029.4 hPa | 0 mm | - | - | - |
| 1777598683 | 3.33° C | 80% | 1029.4 hPa | 0 mm | - | - | - |
| 1777597482 | 3.89° C | 80% | 1029.2 hPa | 0 mm | - | - | - |
| 1777596883 | 3.89° C | 80% | 1029 hPa | 0 mm | - | - | - |
| 1777596292 | 3.89° C | 80% | 1029.1 hPa | 0 mm | - | - | - |
| 1777595682 | 3.89° C | 79% | 1029.2 hPa | 0 mm | - | - | - |
* Rain latest hour (hover to see other rain measurements)
** Current wind speed in m/s (hover to see current wind gust speed)